Regional Weather Roundup
Issued by NWS

Home | Current Version | Previous Version | Text Only | Print | Product List | Glossary Off
Versions: 1 2 3 4 5 6 7 8 9 10 11 12 13 14 15 16 17 18 19 20 21 22 23 24 25 26 27 28 29 30 31 32 33 34 35 36 37 38 39 40 41 42 43 44 45 46 47 48 49 50

000
ASUS43 KDTX 251801
RWRMI
MICHIGAN HOURLY REGIONAL WEATHER ROUNDUP
NATIONAL WEATHER SERVICE DETROIT/PONTIAC MI
200 PM EDT SAT OCT 25 2014

NOTE: "FAIR" INDICATES FEW OR NO CLOUDS BELOW 12,000 FEET WITH NO
SIGNIFICANT WEATHER AND/OR OBSTRUCTION TO VISIBILITY.

MIZ047>049-052>055-059>063-066>070-074>076-081>083-251900-
SOUTHEAST LOWER MICHIGAN

CITY           SKY/WX    TMP DP  RH WIND       PRES   REMARKS
ADRIAN         MOSUNNY   64  52  64 NW17G24   29.83F
6HR MIN TEMP:  47; 6HR MAX TEMP:  64; 6HR PCP: TRACE;

ALMA           SUNNY     67  38  35 W20G26    29.76F
ANN ARBOR      MOSUNNY   65  50  58 W24       29.79F
BAD AXE        MOSUNNY   63  49  59 W13G31    29.69F
6HR MIN TEMP:  51; 6HR MAX TEMP:  63;

CARO           MOSUNNY   66  49  54 SW14G22   29.71F
DETROIT CITY   PTSUNNY   64  51  62 W15G22    29.77F
6HR MIN TEMP:  53; 6HR MAX TEMP:  65;

DETROIT        MOSUNNY   65  52  62 W21       29.79F
6HR MIN TEMP:  51; 6HR MAX TEMP:  65;

FLINT          MOSUNNY   66  48  52 W20G28    29.75F
6HR MIN TEMP:  53; 6HR MAX TEMP:  66;

GROSSE ILE     MOSUNNY   64  54  68 W16       29.77F
HILLSDALE      SUNNY     65  52  62 W13G21    29.84F
HOWELL         SUNNY     63  49  60 SW15G22   29.77F
6HR MIN TEMP:  51; 6HR MAX TEMP:  63;


CITY           SKY/WX    TMP DP  RH WIND       PRES   REMARKS
JACKSON        SUNNY     65  48  54 W17G25    29.81F
6HR MIN TEMP:  53; 6HR MAX TEMP:  65;

LAMBERTVILLE   PTSUNNY   66  52  59 W16G24    29.82F
LANSING        SUNNY     65  46  50 W20G25    29.79F
6HR MIN TEMP:  53; 6HR MAX TEMP:  65;

LAPEER         FAIR      63  47  56 W16G25    29.74F
MASON          SUNNY     64  49  58 W14G24    29.79F
MONROE         MOSUNNY   66  54  63 W14       29.78F
MT. CLEMENS    MOSUNNY   64  51  63 W16G23    29.73F HAZE
6HR MIN TEMP:  51; 6HR MAX TEMP:  64;

PONTIAC        PTSUNNY   61  50  67 W15G22    29.76F
6HR MIN TEMP:  50; 6HR MAX TEMP:  61;

PORT HOPE        N/A     64  46  52 SW12G23   29.65F
6HR MIN TEMP:  52; 6HR MAX TEMP:  64;

PORT HURON     MOSUNNY   63  52  67 W9G16     29.73F
TRI CITIES     SUNNY     67  43  41 W21G28    29.73F
6HR MIN TEMP:  50; 6HR MAX TEMP:  67; 6HR PCP: TRACE;

TROY           PTSUNNY   64  49  59 W15G29    29.78F
SAGINAW HB     MOSUNNY   66  45  45 W16       29.72F
$$
MIZ043>046-050>051-056>058-064>065-071>073-077>080-251900-
SOUTHWEST LOWER MICHIGAN

CITY           SKY/WX    TMP DP  RH WIND       PRES   REMARKS
BATTLE CREEK   SUNNY     65  47  52 W20       29.84F
6HR MIN TEMP:  54; 6HR MAX TEMP:  66;

BENTON HARBOR  SUNNY     61  50  67 W16       29.91F
6HR MIN TEMP:  55; 6HR MAX TEMP:  61;

BIG RAPIDS     SUNNY     64  38  38 W20G29    29.76F
6HR MIN TEMP:  54; 6HR MAX TEMP:  64;

COLDWATER      SUNNY     66  51  59 W15G23    29.86F
FREMONT        FAIR      64  33  30 W17G24    29.81F
HOLLAND        SUNNY     64  46  52 NW18G24   29.87F
6HR MIN TEMP:  57; 6HR MAX TEMP:  65;

GRAND RAPIDS   MOSUNNY   66  41  40 W18G30    29.82F
6HR MIN TEMP:  55; 6HR MAX TEMP:  67;

IONIA          FAIR      66  43  42 W18G31    29.79S
KALAMAZOO      SUNNY     66  47  50 W16       29.86F
6HR MIN TEMP:  57; 6HR MAX TEMP:  66;

LUDINGTON      SUNNY     59  47  64 W7G17     29.82S
6HR MIN TEMP:  55; 6HR MAX TEMP:  59;

MARSHALL       SUNNY     65  49  57 W14G25    29.82F
MOUNT PLEASANT SUNNY     67  35  30 W15G24    29.73F
6HR MIN TEMP:  51; 6HR MAX TEMP:  67;

MUSKEGON       SUNNY     62  47  57 W17G25    29.85F
6HR MIN TEMP:  56; 6HR MAX TEMP:  63;

SOUTH HAVEN    SUNNY     63  49  61 NW15G23   29.89F
$$
MIZ016>042-251900-
NORTHERN LOWER MICHIGAN

CITY           SKY/WX    TMP DP  RH WIND       PRES   REMARKS
ALPENA         SUNNY     62  37  39 NW18G29   29.62F
6HR MIN TEMP:  52; 6HR MAX TEMP:  63;

BEAVER ISLAND  SUNNY     60  43  54 W13       29.70S
6HR MIN TEMP:  51; 6HR MAX TEMP:  60;

BELLAIRE       SUNNY     59  37  42 NW10G22   29.73S
CADILLAC       SUNNY     61  39  44 W23G29    29.74S
CHARLEVOIX     SUNNY     58  44  60 W16G23    29.74F
6HR MIN TEMP:  54; 6HR MAX TEMP:  59;

FRANKFORT      SUNNY     59  45  58 W12       29.77F
GAYLORD        SUNNY     56  35  45 NW16G26   29.69F
6HR MIN TEMP:  52; 6HR MAX TEMP:  58;

GRAYLING       SUNNY     60  35  38 W21G29    29.71F
6HR MIN TEMP:  54; 6HR MAX TEMP:  62;

HARBOR SPRINGS MOSUNNY   58  44  60 W13G21    29.70R
HOUGHTON LAKE  SUNNY     61  34  36 W18G29    29.70F
6HR MIN TEMP:  51; 6HR MAX TEMP:  62;

MANISTEE       SUNNY     59  39  47 W17       29.80F
OSCODA         SUNNY     67  38  34 W21G30    29.63F
PELLSTON       CLOUDY    57  38  48 W18G24    29.68S
6HR MIN TEMP:  54; 6HR MAX TEMP:  60;

TRAVERSE CITY  MOSUNNY   61  36  39 W22G31    29.73F
6HR MIN TEMP:  55; 6HR MAX TEMP:  62;

$$
MIZ007>008-015-251900-
EASTERN UPPER MICHIGAN

CITY           SKY/WX    TMP DP  RH WIND       PRES   REMARKS
KINROSS        CLOUDY    54  37  54 NW25G33   29.63R
6HR MIN TEMP:  50; 6HR MAX TEMP:  57;

MACKINAC ISLAN CLOUDY    56  39  52 W16G25    29.65S
6HR MIN TEMP:  52; 6HR MAX TEMP:  57;

NEWBERRY       CLOUDY    52  37  55 NW17G29   29.67S
S. S. MARIE    PTSUNNY   53  38  56 NW22G36   29.62R
6HR MIN TEMP:  51; 6HR MAX TEMP:  56;

MUNISING         N/A     57  37  47 NW18G26   29.69F
6HR MIN TEMP:  49; 6HR MAX TEMP:  57;

$$
MIZ004>006-011>014-085-251900-
CENTRAL UPPER MICHIGAN

CITY           SKY/WX    TMP DP  RH WIND       PRES   REMARKS
MANISTIQUE     SUNNY     60  37  41 W16G23    29.68S
ESCANABA       SUNNY     61  34  36 NW21G30   29.70S
6HR MIN TEMP:  46; 6HR MAX TEMP:  61; 6HR PCP:  0.01;

MENOMINEE      SUNNY     63  30  29 NW16G28   29.76S
6HR MIN TEMP:  52; 6HR MAX TEMP:  63;

SAWYER-GWINN   SUNNY     55  34  44 W25       29.71F
$$
MIZ001>003-009>011-084-251900-
WESTERN UPPER MICHIGAN

CITY           SKY/WX    TMP DP  RH WIND       PRES   REMARKS
IRON MOUNTAIN  SUNNY     59  27  29 W29G38    29.76S
6HR MIN TEMP:  51; 6HR MAX TEMP:  60;

HOUGHTON       SUNNY     52  34  50 W32G44    29.72F
6HR MIN TEMP:  50; 6HR MAX TEMP:  52;

COPPER HARBOR    N/A     54  35  48 NW20G38   29.66S
6HR MIN TEMP:  53; 6HR MAX TEMP:  54;

IRONWOOD       SUNNY     54  32  43 W24G30    29.82F
6HR MIN TEMP:  46; 6HR MAX TEMP:  54;

$$

ABBREVIATIONS USED IN REMARKS
   TC - TEMPERATURE IN CELSIUS
  WCI - WIND CHILL INDEX
   HX - HEAT INDEX
  VSB - VISIBILITY




USA.gov is the U.S. government's official web portal to all federal, state and local government web resources and services.